Data supplied by UK-AIR on 5/4/2008
All Data GMT hour ending 
Status: R =Ratified P=Provisional,P*=As supplied
,,Bury Roadside,,,,,,,,,,,,,,,,,,,,,,,
Date,time,"Carbon monoxide",status,unit,"PM10 particulate matter (Hourly measured)",status,unit,"Nitric oxide",status,unit,"Nitrogen dioxide",status,unit,"Nitrogen oxides as nitrogen dioxide",status,unit,"Ozone",status,unit,"Sulphur dioxide",status,unit
 
01-01-1998,01:00,0.2,R,mgm-3,12,R,ugm-3 (GRAV EQ),14,R,ugm-3,34,R,ugm-3,55,R,ugm-3,32,R,ugm-3,11,R,ugm-3
01-01-1998,02:00,0.3,R,mgm-3,12,R,ugm-3 (GRAV EQ),25,R,ugm-3,44,R,ugm-3,82,R,ugm-3,26,R,ugm-3,13,R,ugm-3
01-01-1998,03:00,0.2,R,mgm-3,10,R,ugm-3 (GRAV EQ),21,R,ugm-3,38,R,ugm-3,71,R,ugm-3,30,R,ugm-3,11,R,ugm-3
01-01-1998,04:00,0.2,R,mgm-3,7,R,ugm-3 (GRAV EQ),15,R,ugm-3,36,R,ugm-3,59,R,ugm-3,32,R,ugm-3,16,R,ugm-3
01-01-1998,05:00,0.2,R,mgm-3,5,R,ugm-3 (GRAV EQ),19,R,ugm-3,38,R,ugm-3,67,R,ugm-3,32,R,ugm-3,13,R,ugm-3
01-01-1998,06:00,0.2,R,mgm-3,7,R,ugm-3 (GRAV EQ),10,R,ugm-3,27,R,ugm-3,42,R,ugm-3,42,R,ugm-3,16,R,ugm-3
01-01-1998,07:00,0.2,R,mgm-3,5,R,ugm-3 (GRAV EQ),13,R,ugm-3,31,R,ugm-3,50,R,ugm-3,38,R,ugm-3,19,R,ugm-3
01-01-1998,08:00,0.2,R,mgm-3,7,R,ugm-3 (GRAV EQ),11,R,ugm-3,36,R,ugm-3,53,R,ugm-3,36,R,ugm-3,21,R,ugm-3
01-01-1998,09:00,0.2,R,mgm-3,9,R,ugm-3 (GRAV EQ),19,R,ugm-3,42,R,ugm-3,71,R,ugm-3,32,R,ugm-3,27,R,ugm-3
01-01-1998,10:00,0.2,R,mgm-3,8,R,ugm-3 (GRAV EQ),21,R,ugm-3,38,R,ugm-3,71,R,ugm-3,36,R,ugm-3,40,R,ugm-3
01-01-1998,11:00,0.2,R,mgm-3,9,R,ugm-3 (GRAV EQ),34,R,ugm-3,42,R,ugm-3,94,R,ugm-3,40,R,ugm-3,27,R,ugm-3
01-01-1998,12:00,0.3,R,mgm-3,7,R,ugm-3 (GRAV EQ),49,R,ugm-3,50,R,ugm-3,124,R,ugm-3,36,R,ugm-3,21,R,ugm-3
01-01-1998,13:00,0.5,R,mgm-3,12,R,ugm-3 (GRAV EQ),53,R,ugm-3,52,R,ugm-3,132,R,ugm-3,36,R,ugm-3,27,R,ugm-3
01-01-1998,14:00,0.7,R,mgm-3,7,R,ugm-3 (GRAV EQ),66,R,ugm-3,55,R,ugm-3,157,R,ugm-3,34,R,ugm-3,29,R,ugm-3
01-01-1998,15:00,0.7,R,mgm-3,8,R,ugm-3 (GRAV EQ),58,R,ugm-3,50,R,ugm-3,138,R,ugm-3,38,R,ugm-3,27,R,ugm-3
01-01-1998,16:00,0.5,R,mgm-3,7,R,ugm-3 (GRAV EQ),48,R,ugm-3,44,R,ugm-3,117,R,ugm-3,42,R,ugm-3,27,R,ugm-3
01-01-1998,17:00,0.5,R,mgm-3,8,R,ugm-3 (GRAV EQ),43,R,ugm-3,44,R,ugm-3,109,R,ugm-3,42,R,ugm-3,,,
01-01-1998,18:00,0.3,R,mgm-3,10,R,ugm-3 (GRAV EQ),36,R,ugm-3,40,R,ugm-3,96,R,ugm-3,44,R,ugm-3,,,
01-01-1998,19:00,0.2,R,mgm-3,9,R,ugm-3 (GRAV EQ),20,R,ugm-3,34,R,ugm-3,65,R,ugm-3,50,R,ugm-3,,,
01-01-1998,20:00,0.2,R,mgm-3,14,R,ugm-3 (GRAV EQ),23,R,ugm-3,40,R,ugm-3,74,R,ugm-3,44,R,ugm-3,8,R,ugm-3
01-01-1998,21:00,0.2,R,mgm-3,14,R,ugm-3 (GRAV EQ),28,R,ugm-3,46,R,ugm-3,88,R,ugm-3,38,R,ugm-3,13,R,ugm-3
01-01-1998,22:00,0.2,R,mgm-3,20,R,ugm-3 (GRAV EQ),26,R,ugm-3,48,R,ugm-3,88,R,ugm-3,38,R,ugm-3,24,R,ugm-3
01-01-1998,23:00,0.2,R,mgm-3,33,R,ugm-3 (GRAV EQ),31,R,ugm-3,55,R,ugm-3,103,R,ugm-3,30,R,ugm-3,69,R,ugm-3
01-01-1998,24:00,0.2,R,mgm-3,25,R,ugm-3 (GRAV EQ),28,R,ugm-3,46,R,ugm-3,88,R,ugm-3,34,R,ugm-3,21,R,ugm-3
02-01-1998,01:00,0.2,R,mgm-3,23,R,ugm-3 (GRAV EQ),25,R,ugm-3,48,R,ugm-3,86,R,ugm-3,32,R,ugm-3,24,R,ugm-3
02-01-1998,02:00,0.1,R,mgm-3,20,R,ugm-3 (GRAV EQ),20,R,ugm-3,38,R,ugm-3,69,R,ugm-3,42,R,ugm-3,13,R,ugm-3
02-01-1998,03:00,0.1,R,mgm-3,18,R,ugm-3 (GRAV EQ),19,R,ugm-3,36,R,ugm-3,65,R,ugm-3,40,R,ugm-3,13,R,ugm-3
02-01-1998,04:00,0.1,R,mgm-3,18,R,ugm-3 (GRAV EQ),13,R,ugm-3,29,R,ugm-3,48,R,ugm-3,46,R,ugm-3,13,R,ugm-3
02-01-1998,05:00,0.1,R,mgm-3,17,R,ugm-3 (GRAV EQ),46,R,ugm-3,46,R,ugm-3,117,R,ugm-3,32,R,ugm-3,8,R,ugm-3
02-01-1998,06:00,0.2,R,mgm-3,20,R,ugm-3 (GRAV EQ),101,R,ugm-3,57,R,ugm-3,212,R,ugm-3,24,R,ugm-3,21,R,ugm-3
02-01-1998,07:00,0.5,R,mgm-3,26,R,ugm-3 (GRAV EQ),218,R,ugm-3,82,R,ugm-3,414,R,ugm-3,10,R,ugm-3,40,R,ugm-3
02-01-1998,08:00,2.2,R,mgm-3,,,,283,R,ugm-3,94,R,ugm-3,525,R,ugm-3,6,R,ugm-3,53,R,ugm-3
02-01-1998,09:00,3.2,R,mgm-3,43,R,ugm-3 (GRAV EQ),229,R,ugm-3,90,R,ugm-3,439,R,ugm-3,6,R,ugm-3,51,R,ugm-3
02-01-1998,10:00,2.9,R,mgm-3,49,R,ugm-3 (GRAV EQ),188,R,ugm-3,86,R,ugm-3,372,R,ugm-3,6,R,ugm-3,67,R,ugm-3
02-01-1998,11:00,2.4,R,mgm-3,48,R,ugm-3 (GRAV EQ),156,R,ugm-3,80,R,ugm-3,319,R,ugm-3,6,R,ugm-3,61,R,ugm-3
02-01-1998,12:00,1.4,R,mgm-3,43,R,ugm-3 (GRAV EQ),111,R,ugm-3,73,R,ugm-3,243,R,ugm-3,8,R,ugm-3,64,R,ugm-3
02-01-1998,13:00,0.7,R,mgm-3,30,R,ugm-3 (GRAV EQ),80,R,ugm-3,65,R,ugm-3,187,R,ugm-3,20,R,ugm-3,43,R,ugm-3
02-01-1998,14:00,0.6,R,mgm-3,29,R,ugm-3 (GRAV EQ),45,R,ugm-3,46,R,ugm-3,115,R,ugm-3,34,R,ugm-3,35,R,ugm-3
02-01-1998,15:00,0.5,R,mgm-3,33,R,ugm-3 (GRAV EQ),51,R,ugm-3,52,R,ugm-3,130,R,ugm-3,30,R,ugm-3,27,R,ugm-3
02-01-1998,16:00,0.8,R,mgm-3,35,R,ugm-3 (GRAV EQ),106,R,ugm-3,69,R,ugm-3,231,R,ugm-3,18,R,ugm-3,32,R,ugm-3
02-01-1998,17:00,1.0,R,mgm-3,40,R,ugm-3 (GRAV EQ),126,R,ugm-3,82,R,ugm-3,275,R,ugm-3,10,R,ugm-3,37,R,ugm-3
02-01-1998,18:00,1.0,R,mgm-3,38,R,ugm-3 (GRAV EQ),138,R,ugm-3,84,R,ugm-3,294,R,ugm-3,8,R,ugm-3,40,R,ugm-3
02-01-1998,19:00,0.9,R,mgm-3,38,R,ugm-3 (GRAV EQ),136,R,ugm-3,80,R,ugm-3,288,R,ugm-3,10,R,ugm-3,40,R,ugm-3
02-01-1998,20:00,0.8,R,mgm-3,35,R,ugm-3 (GRAV EQ),136,R,ugm-3,80,R,ugm-3,288,R,ugm-3,8,R,ugm-3,56,R,ugm-3
02-01-1998,21:00,0.7,R,mgm-3,35,R,ugm-3 (GRAV EQ),131,R,ugm-3,80,R,ugm-3,281,R,ugm-3,6,R,ugm-3,74,R,ugm-3
02-01-1998,22:00,0.6,R,mgm-3,36,R,ugm-3 (GRAV EQ),90,R,ugm-3,74,R,ugm-3,212,R,ugm-3,10,R,ugm-3,120,R,ugm-3
02-01-1998,23:00,0.5,R,mgm-3,31,R,ugm-3 (GRAV EQ),98,R,ugm-3,73,R,ugm-3,222,R,ugm-3,10,R,ugm-3,96,R,ugm-3
02-01-1998,24:00,0.2,R,mgm-3,33,R,ugm-3 (GRAV EQ),46,R,ugm-3,55,R,ugm-3,126,R,ugm-3,22,R,ugm-3,43,R,ugm-3
03-01-1998,01:00,0.2,R,mgm-3,23,R,ugm-3 (GRAV EQ),34,R,ugm-3,44,R,ugm-3,96,R,ugm-3,26,R,ugm-3,37,R,ugm-3
03-01-1998,02:00,0.1,R,mgm-3,17,R,ugm-3 (GRAV EQ),16,R,ugm-3,29,R,ugm-3,53,R,ugm-3,48,R,ugm-3,21,R,ugm-3
03-01-1998,03:00,0.1,R,mgm-3,12,R,ugm-3 (GRAV EQ),14,R,ugm-3,25,R,ugm-3,46,R,ugm-3,54,R,ugm-3,29,R,ugm-3
03-01-1998,04:00,0.1,R,mgm-3,16,R,ugm-3 (GRAV EQ),11,R,ugm-3,21,R,ugm-3,38,R,ugm-3,54,R,ugm-3,13,R,ugm-3
03-01-1998,05:00,0.1,R,mgm-3,9,R,ugm-3 (GRAV EQ),13,R,ugm-3,23,R,ugm-3,42,R,ugm-3,50,R,ugm-3,11,R,ugm-3
03-01-1998,06:00,0.1,R,mgm-3,4,R,ugm-3 (GRAV EQ),18,R,ugm-3,29,R,ugm-3,55,R,ugm-3,44,R,ugm-3,16,R,ugm-3
03-01-1998,07:00,0.2,R,mgm-3,7,R,ugm-3 (GRAV EQ),36,R,ugm-3,48,R,ugm-3,103,R,ugm-3,32,R,ugm-3,21,R,ugm-3
03-01-1998,08:00,0.2,R,mgm-3,9,R,ugm-3 (GRAV EQ),50,R,ugm-3,55,R,ugm-3,132,R,ugm-3,28,R,ugm-3,21,R,ugm-3
03-01-1998,09:00,0.2,R,mgm-3,13,R,ugm-3 (GRAV EQ),55,R,ugm-3,63,R,ugm-3,147,R,ugm-3,26,R,ugm-3,32,R,ugm-3
03-01-1998,10:00,0.2,R,mgm-3,14,R,ugm-3 (GRAV EQ),43,R,ugm-3,53,R,ugm-3,118,R,ugm-3,32,R,ugm-3,24,R,ugm-3
03-01-1998,11:00,0.5,R,mgm-3,20,R,ugm-3 (GRAV EQ),64,R,ugm-3,69,R,ugm-3,166,R,ugm-3,20,R,ugm-3,24,R,ugm-3
03-01-1998,12:00,0.3,R,mgm-3,17,R,ugm-3 (GRAV EQ),36,R,ugm-3,53,R,ugm-3,109,R,ugm-3,36,R,ugm-3,21,R,ugm-3
03-01-1998,13:00,0.3,R,mgm-3,20,R,ugm-3 (GRAV EQ),34,R,ugm-3,50,R,ugm-3,101,R,ugm-3,38,R,ugm-3,16,R,ugm-3
03-01-1998,14:00,0.3,R,mgm-3,29,R,ugm-3 (GRAV EQ),31,R,ugm-3,48,R,ugm-3,96,R,ugm-3,40,R,ugm-3,16,R,ugm-3
03-01-1998,15:00,0.3,R,mgm-3,29,R,ugm-3 (GRAV EQ),34,R,ugm-3,46,R,ugm-3,97,R,ugm-3,38,R,ugm-3,11,R,ugm-3
03-01-1998,16:00,0.3,R,mgm-3,22,R,ugm-3 (GRAV EQ),31,R,ugm-3,48,R,ugm-3,96,R,ugm-3,38,R,ugm-3,13,R,ugm-3
03-01-1998,17:00,0.3,R,mgm-3,20,R,ugm-3 (GRAV EQ),38,R,ugm-3,53,R,ugm-3,111,R,ugm-3,34,R,ugm-3,13,R,ugm-3
03-01-1998,18:00,,,,,,,,,,,,,,,,,,,,,
03-01-1998,19:00,0.2,R,mgm-3,21,R,ugm-3 (GRAV EQ),15,R,ugm-3,32,R,ugm-3,55,R,ugm-3,54,R,ugm-3,5,R,ugm-3
03-01-1998,20:00,0.2,R,mgm-3,35,R,ugm-3 (GRAV EQ),13,R,ugm-3,32,R,ugm-3,52,R,ugm-3,54,R,ugm-3,8,R,ugm-3
03-01-1998,21:00,0.2,R,mgm-3,36,R,ugm-3 (GRAV EQ),11,R,ugm-3,29,R,ugm-3,46,R,ugm-3,56,R,ugm-3,8,R,ugm-3
03-01-1998,22:00,0.1,R,mgm-3,29,R,ugm-3 (GRAV EQ),10,R,ugm-3,31,R,ugm-3,46,R,ugm-3,54,R,ugm-3,8,R,ugm-3
03-01-1998,23:00,0.1,R,mgm-3,25,R,ugm-3 (GRAV EQ),11,R,ugm-3,29,R,ugm-3,46,R,ugm-3,54,R,ugm-3,11,R,ugm-3
03-01-1998,24:00,0.1,R,mgm-3,23,R,ugm-3 (GRAV EQ),13,R,ugm-3,31,R,ugm-3,50,R,ugm-3,50,R,ugm-3,,,
04-01-1998,01:00,,,,20,R,ugm-3 (GRAV EQ),13,R,ugm-3,36,R,ugm-3,55,R,ugm-3,,,,19,R,ugm-3
04-01-1998,02:00,0.1,R,mgm-3,14,R,ugm-3 (GRAV EQ),9,R,ugm-3,29,R,ugm-3,42,R,ugm-3,50,R,ugm-3,43,R,ugm-3
04-01-1998,03:00,0.1,R,mgm-3,14,R,ugm-3 (GRAV EQ),4,R,ugm-3,23,R,ugm-3,29,R,ugm-3,58,R,ugm-3,24,R,ugm-3
04-01-1998,04:00,0.1,R,mgm-3,10,R,ugm-3 (GRAV EQ),11,R,ugm-3,32,R,ugm-3,50,R,ugm-3,46,R,ugm-3,37,R,ugm-3
04-01-1998,05:00,0.2,R,mgm-3,17,R,ugm-3 (GRAV EQ),23,R,ugm-3,50,R,ugm-3,84,R,ugm-3,28,R,ugm-3,96,R,ugm-3
04-01-1998,06:00,0.1,R,mgm-3,16,R,ugm-3 (GRAV EQ),28,R,ugm-3,53,R,ugm-3,96,R,ugm-3,26,R,ugm-3,77,R,ugm-3
04-01-1998,07:00,0.2,R,mgm-3,12,R,ugm-3 (GRAV EQ),45,R,ugm-3,55,R,ugm-3,124,R,ugm-3,24,R,ugm-3,32,R,ugm-3
04-01-1998,08:00,0.2,R,mgm-3,8,R,ugm-3 (GRAV EQ),44,R,ugm-3,52,R,ugm-3,118,R,ugm-3,30,R,ugm-3,29,R,ugm-3
04-01-1998,09:00,0.2,R,mgm-3,14,R,ugm-3 (GRAV EQ),39,R,ugm-3,48,R,ugm-3,107,R,ugm-3,34,R,ugm-3,37,R,ugm-3
04-01-1998,10:00,0.3,R,mgm-3,13,R,ugm-3 (GRAV EQ),44,R,ugm-3,46,R,ugm-3,113,R,ugm-3,34,R,ugm-3,45,R,ugm-3
04-01-1998,11:00,0.6,R,mgm-3,8,R,ugm-3 (GRAV EQ),65,R,ugm-3,53,R,ugm-3,153,R,ugm-3,30,R,ugm-3,45,R,ugm-3
04-01-1998,12:00,0.8,R,mgm-3,8,R,ugm-3 (GRAV EQ),88,R,ugm-3,61,R,ugm-3,195,R,ugm-3,28,R,ugm-3,53,R,ugm-3
04-01-1998,13:00,0.8,R,mgm-3,18,R,ugm-3 (GRAV EQ),76,R,ugm-3,57,R,ugm-3,174,R,ugm-3,32,R,ugm-3,51,R,ugm-3
04-01-1998,14:00,0.8,R,mgm-3,13,R,ugm-3 (GRAV EQ),70,R,ugm-3,61,R,ugm-3,168,R,ugm-3,32,R,ugm-3,48,R,ugm-3
04-01-1998,15:00,1.5,R,mgm-3,17,R,ugm-3 (GRAV EQ),119,R,ugm-3,69,R,ugm-3,250,R,ugm-3,20,R,ugm-3,56,R,ugm-3
04-01-1998,16:00,1.4,R,mgm-3,27,R,ugm-3 (GRAV EQ),110,R,ugm-3,74,R,ugm-3,243,R,ugm-3,14,R,ugm-3,59,R,ugm-3
04-01-1998,17:00,1.6,R,mgm-3,31,R,ugm-3 (GRAV EQ),158,R,ugm-3,84,R,ugm-3,325,R,ugm-3,4,R,ugm-3,64,R,ugm-3
04-01-1998,18:00,0.9,R,mgm-3,31,R,ugm-3 (GRAV EQ),86,R,ugm-3,71,R,ugm-3,202,R,ugm-3,12,R,ugm-3,56,R,ugm-3
04-01-1998,19:00,0.3,R,mgm-3,23,R,ugm-3 (GRAV EQ),14,R,ugm-3,32,R,ugm-3,53,R,ugm-3,44,R,ugm-3,45,R,ugm-3
04-01-1998,20:00,0.2,R,mgm-3,22,R,ugm-3 (GRAV EQ),11,R,ugm-3,23,R,ugm-3,40,R,ugm-3,44,R,ugm-3,40,R,ugm-3
04-01-1998,21:00,0.2,R,mgm-3,21,R,ugm-3 (GRAV EQ),10,R,ugm-3,23,R,ugm-3,38,R,ugm-3,66,R,ugm-3,37,R,ugm-3
04-01-1998,22:00,0.2,R,mgm-3,14,R,ugm-3 (GRAV EQ),10,R,ugm-3,27,R,ugm-3,42,R,ugm-3,60,R,ugm-3,37,R,ugm-3
04-01-1998,23:00,0.2,R,mgm-3,22,R,ugm-3 (GRAV EQ),10,R,ugm-3,34,R,ugm-3,50,R,ugm-3,48,R,ugm-3,37,R,ugm-3
04-01-1998,24:00,0.1,R,mgm-3,26,R,ugm-3 (GRAV EQ),5,R,ugm-3,23,R,ugm-3,31,R,ugm-3,56,R,ugm-3,35,R,ugm-3
05-01-1998,01:00,0.1,R,mgm-3,25,R,ugm-3 (GRAV EQ),10,R,ugm-3,25,R,ugm-3,40,R,ugm-3,50,R,ugm-3,27,R,ugm-3
05-01-1998,02:00,0.0,R,mgm-3,23,R,ugm-3 (GRAV EQ),8,R,ugm-3,21,R,ugm-3,32,R,ugm-3,56,R,ugm-3,19,R,ugm-3
05-01-1998,03:00,0.1,R,mgm-3,21,R,ugm-3 (GRAV EQ),14,R,ugm-3,31,R,ugm-3,52,R,ugm-3,46,R,ugm-3,19,R,ugm-3
05-01-1998,04:00,0.0,R,mgm-3,16,R,ugm-3 (GRAV EQ),23,R,ugm-3,36,R,ugm-3,71,R,ugm-3,40,R,ugm-3,24,R,ugm-3
05-01-1998,05:00,0.1,R,mgm-3,21,R,ugm-3 (GRAV EQ),74,R,ugm-3,63,R,ugm-3,176,R,ugm-3,16,R,ugm-3,53,R,ugm-3
05-01-1998,06:00,0.5,R,mgm-3,27,R,ugm-3 (GRAV EQ),264,R,ugm-3,84,R,ugm-3,487,R,ugm-3,4,R,ugm-3,61,R,ugm-3
05-01-1998,07:00,1.2,R,mgm-3,48,R,ugm-3 (GRAV EQ),458,R,ugm-3,107,R,ugm-3,806,R,ugm-3,2,R,ugm-3,85,R,ugm-3
05-01-1998,08:00,2.8,R,mgm-3,56,R,ugm-3 (GRAV EQ),586,R,ugm-3,120,R,ugm-3,1016,R,ugm-3,4,R,ugm-3,93,R,ugm-3
05-01-1998,09:00,2.9,R,mgm-3,55,R,ugm-3 (GRAV EQ),554,R,ugm-3,120,R,ugm-3,966,R,ugm-3,4,R,ugm-3,93,R,ugm-3
05-01-1998,10:00,2.8,R,mgm-3,57,R,ugm-3 (GRAV EQ),561,R,ugm-3,126,R,ugm-3,984,R,ugm-3,4,R,ugm-3,98,R,ugm-3
05-01-1998,11:00,2.9,R,mgm-3,60,R,ugm-3 (GRAV EQ),421,R,ugm-3,122,R,ugm-3,766,R,ugm-3,4,R,ugm-3,93,R,ugm-3
05-01-1998,12:00,3.4,R,mgm-3,70,R,ugm-3 (GRAV EQ),330,R,ugm-3,109,R,ugm-3,613,R,ugm-3,4,R,ugm-3,90,R,ugm-3
05-01-1998,13:00,2.2,R,mgm-3,44,R,ugm-3 (GRAV EQ),180,R,ugm-3,94,R,ugm-3,369,R,ugm-3,4,R,ugm-3,72,R,ugm-3
05-01-1998,14:00,2.0,R,mgm-3,42,R,ugm-3 (GRAV EQ),160,R,ugm-3,86,R,ugm-3,330,R,ugm-3,4,R,ugm-3,64,R,ugm-3
05-01-1998,15:00,2.1,R,mgm-3,51,R,ugm-3 (GRAV EQ),185,R,ugm-3,90,R,ugm-3,372,R,ugm-3,4,R,ugm-3,67,R,ugm-3
05-01-1998,16:00,2.4,R,mgm-3,60,R,ugm-3 (GRAV EQ),203,R,ugm-3,88,R,ugm-3,397,R,ugm-3,4,R,ugm-3,53,R,ugm-3
05-01-1998,17:00,2.8,R,mgm-3,46,R,ugm-3 (GRAV EQ),200,R,ugm-3,86,R,ugm-3,392,R,ugm-3,4,R,ugm-3,32,R,ugm-3
05-01-1998,18:00,2.9,R,mgm-3,47,R,ugm-3 (GRAV EQ),206,R,ugm-3,88,R,ugm-3,403,R,ugm-3,2,R,ugm-3,53,R,ugm-3
05-01-1998,19:00,1.6,R,mgm-3,33,R,ugm-3 (GRAV EQ),105,R,ugm-3,74,R,ugm-3,235,R,ugm-3,6,R,ugm-3,19,R,ugm-3
05-01-1998,20:00,0.6,R,mgm-3,21,R,ugm-3 (GRAV EQ),40,R,ugm-3,55,R,ugm-3,117,R,ugm-3,20,R,ugm-3,5,R,ugm-3
05-01-1998,21:00,0.5,R,mgm-3,14,R,ugm-3 (GRAV EQ),28,R,ugm-3,50,R,ugm-3,92,R,ugm-3,28,R,ugm-3,8,R,ugm-3
05-01-1998,22:00,0.3,R,mgm-3,21,R,ugm-3 (GRAV EQ),69,R,ugm-3,59,R,ugm-3,164,R,ugm-3,20,R,ugm-3,5,R,ugm-3
05-01-1998,23:00,0.2,R,mgm-3,22,R,ugm-3 (GRAV EQ),33,R,ugm-3,46,R,ugm-3,96,R,ugm-3,34,R,ugm-3,8,R,ugm-3
05-01-1998,24:00,0.1,R,mgm-3,14,R,ugm-3 (GRAV EQ),20,R,ugm-3,34,R,ugm-3,65,R,ugm-3,44,R,ugm-3,5,R,ugm-3
06-01-1998,01:00,0.1,R,mgm-3,18,R,ugm-3 (GRAV EQ),14,R,ugm-3,23,R,ugm-3,44,R,ugm-3,48,R,ugm-3,24,R,ugm-3
06-01-1998,02:00,0.1,R,mgm-3,21,R,ugm-3 (GRAV EQ),33,R,ugm-3,67,R,ugm-3,117,R,ugm-3,10,R,ugm-3,24,R,ugm-3
06-01-1998,03:00,0.1,R,mgm-3,26,R,ugm-3 (GRAV EQ),115,R,ugm-3,78,R,ugm-3,254,R,ugm-3,6,R,ugm-3,32,R,ugm-3
06-01-1998,04:00,0.2,R,mgm-3,36,R,ugm-3 (GRAV EQ),153,R,ugm-3,76,R,ugm-3,309,R,ugm-3,4,R,ugm-3,45,R,ugm-3
06-01-1998,05:00,0.2,R,mgm-3,35,R,ugm-3 (GRAV EQ),185,R,ugm-3,80,R,ugm-3,363,R,ugm-3,4,R,ugm-3,61,R,ugm-3
06-01-1998,06:00,0.3,R,mgm-3,40,R,ugm-3 (GRAV EQ),285,R,ugm-3,90,R,ugm-3,525,R,ugm-3,2,R,ugm-3,74,R,ugm-3
06-01-1998,07:00,1.4,R,mgm-3,57,R,ugm-3 (GRAV EQ),563,R,ugm-3,117,R,ugm-3,976,R,ugm-3,2,R,ugm-3,125,R,ugm-3
06-01-1998,08:00,3.0,R,mgm-3,68,R,ugm-3 (GRAV EQ),658,R,ugm-3,134,R,ugm-3,1138,R,ugm-3,4,R,ugm-3,122,R,ugm-3
06-01-1998,09:00,3.1,R,mgm-3,64,R,ugm-3 (GRAV EQ),606,R,ugm-3,136,R,ugm-3,1062,R,ugm-3,4,R,ugm-3,114,R,ugm-3
06-01-1998,10:00,2.9,R,mgm-3,70,R,ugm-3 (GRAV EQ),671,R,ugm-3,139,R,ugm-3,1165,R,ugm-3,4,R,ugm-3,128,R,ugm-3
06-01-1998,11:00,2.6,R,mgm-3,69,R,ugm-3 (GRAV EQ),676,R,ugm-3,139,R,ugm-3,1173,R,ugm-3,2,R,ugm-3,133,R,ugm-3
06-01-1998,12:00,,,,,,,,,,,,,,,,,,,,,
06-01-1998,13:00,1.2,R,mgm-3,77,R,ugm-3 (GRAV EQ),454,R,ugm-3,117,R,ugm-3,810,R,ugm-3,2,R,ugm-3,72,R,ugm-3
06-01-1998,14:00,1.4,R,mgm-3,65,R,ugm-3 (GRAV EQ),479,R,ugm-3,120,R,ugm-3,852,R,ugm-3,2,R,ugm-3,98,R,ugm-3
06-01-1998,15:00,1.0,R,mgm-3,40,R,ugm-3 (GRAV EQ),346,R,ugm-3,105,R,ugm-3,634,R,ugm-3,2,R,ugm-3,77,R,ugm-3
06-01-1998,16:00,1.3,R,mgm-3,44,R,ugm-3 (GRAV EQ),391,R,ugm-3,105,R,ugm-3,703,R,ugm-3,0,R,ugm-3,80,R,ugm-3
06-01-1998,17:00,1.3,R,mgm-3,34,R,ugm-3 (GRAV EQ),290,R,ugm-3,94,R,ugm-3,537,R,ugm-3,0,R,ugm-3,77,R,ugm-3
06-01-1998,18:00,1.7,R,mgm-3,34,R,ugm-3 (GRAV EQ),271,R,ugm-3,94,R,ugm-3,508,R,ugm-3,0,R,ugm-3,80,R,ugm-3
06-01-1998,19:00,1.3,R,mgm-3,29,R,ugm-3 (GRAV EQ),209,R,ugm-3,86,R,ugm-3,405,R,ugm-3,0,R,ugm-3,85,R,ugm-3
06-01-1998,20:00,0.9,R,mgm-3,29,R,ugm-3 (GRAV EQ),183,R,ugm-3,78,R,ugm-3,357,R,ugm-3,0,R,ugm-3,80,R,ugm-3
06-01-1998,21:00,0.8,R,mgm-3,27,R,ugm-3 (GRAV EQ),125,R,ugm-3,69,R,ugm-3,260,R,ugm-3,12,R,ugm-3,45,R,ugm-3
06-01-1998,22:00,0.3,R,mgm-3,21,R,ugm-3 (GRAV EQ),70,R,ugm-3,59,R,ugm-3,166,R,ugm-3,20,R,ugm-3,5,R,ugm-3
06-01-1998,23:00,0.2,R,mgm-3,22,R,ugm-3 (GRAV EQ),34,R,ugm-3,46,R,ugm-3,97,R,ugm-3,34,R,ugm-3,8,R,ugm-3
06-01-1998,24:00,0.2,R,mgm-3,17,R,ugm-3 (GRAV EQ),43,R,ugm-3,44,R,ugm-3,109,R,ugm-3,36,R,ugm-3,19,R,ugm-3
07-01-1998,01:00,0.3,R,mgm-3,34,R,ugm-3 (GRAV EQ),73,R,ugm-3,61,R,ugm-3,172,R,ugm-3,14,R,ugm-3,48,R,ugm-3
07-01-1998,02:00,0.1,R,mgm-3,22,R,ugm-3 (GRAV EQ),25,R,ugm-3,44,R,ugm-3,82,R,ugm-3,28,R,ugm-3,40,R,ugm-3
07-01-1998,03:00,0.1,R,mgm-3,21,R,ugm-3 (GRAV EQ),38,R,ugm-3,53,R,ugm-3,111,R,ugm-3,20,R,ugm-3,37,R,ugm-3
07-01-1998,04:00,0.1,R,mgm-3,8,R,ugm-3 (GRAV EQ),39,R,ugm-3,48,R,ugm-3,107,R,ugm-3,32,R,ugm-3,29,R,ugm-3
07-01-1998,05:00,0.1,R,mgm-3,10,R,ugm-3 (GRAV EQ),75,R,ugm-3,59,R,ugm-3,174,R,ugm-3,22,R,ugm-3,29,R,ugm-3
07-01-1998,06:00,0.1,R,mgm-3,13,R,ugm-3 (GRAV EQ),104,R,ugm-3,71,R,ugm-3,229,R,ugm-3,16,R,ugm-3,29,R,ugm-3
07-01-1998,07:00,0.5,R,mgm-3,36,R,ugm-3 (GRAV EQ),250,R,ugm-3,94,R,ugm-3,476,R,ugm-3,6,R,ugm-3,48,R,ugm-3
07-01-1998,08:00,1.2,R,mgm-3,51,R,ugm-3 (GRAV EQ),281,R,ugm-3,103,R,ugm-3,533,R,ugm-3,2,R,ugm-3,67,R,ugm-3
07-01-1998,09:00,1.5,R,mgm-3,46,R,ugm-3 (GRAV EQ),293,R,ugm-3,113,R,ugm-3,560,R,ugm-3,0,R,ugm-3,88,R,ugm-3
07-01-1998,10:00,0.9,R,mgm-3,40,R,ugm-3 (GRAV EQ),303,R,ugm-3,103,R,ugm-3,565,R,ugm-3,0,R,ugm-3,74,R,ugm-3
07-01-1998,11:00,0.5,R,mgm-3,31,R,ugm-3 (GRAV EQ),215,R,ugm-3,97,R,ugm-3,426,R,ugm-3,4,R,ugm-3,61,R,ugm-3
07-01-1998,12:00,0.5,R,mgm-3,35,R,ugm-3 (GRAV EQ),256,R,ugm-3,101,R,ugm-3,493,R,ugm-3,6,R,ugm-3,53,R,ugm-3
07-01-1998,13:00,0.6,R,mgm-3,31,R,ugm-3 (GRAV EQ),251,R,ugm-3,97,R,ugm-3,481,R,ugm-3,4,R,ugm-3,72,R,ugm-3
07-01-1998,14:00,0.8,R,mgm-3,40,R,ugm-3 (GRAV EQ),309,R,ugm-3,101,R,ugm-3,573,R,ugm-3,2,R,ugm-3,104,R,ugm-3
07-01-1998,15:00,0.6,R,mgm-3,36,R,ugm-3 (GRAV EQ),300,R,ugm-3,105,R,ugm-3,563,R,ugm-3,2,R,ugm-3,82,R,ugm-3
07-01-1998,16:00,0.8,R,mgm-3,36,R,ugm-3 (GRAV EQ),310,R,ugm-3,107,R,ugm-3,581,R,ugm-3,2,R,ugm-3,85,R,ugm-3
07-01-1998,17:00,0.9,R,mgm-3,39,R,ugm-3 (GRAV EQ),221,R,ugm-3,92,R,ugm-3,430,R,ugm-3,2,R,ugm-3,77,R,ugm-3
07-01-1998,18:00,,,,,,,,,,,,,,,,,,,,,
07-01-1998,19:00,1.0,R,mgm-3,23,R,ugm-3 (GRAV EQ),203,R,ugm-3,94,R,ugm-3,403,R,ugm-3,6,R,ugm-3,64,R,ugm-3
07-01-1998,20:00,0.9,R,mgm-3,25,R,ugm-3 (GRAV EQ),175,R,ugm-3,90,R,ugm-3,357,R,ugm-3,10,R,ugm-3,53,R,ugm-3
07-01-1998,21:00,0.3,R,mgm-3,14,R,ugm-3 (GRAV EQ),70,R,ugm-3,74,R,ugm-3,181,R,ugm-3,22,R,ugm-3,45,R,ugm-3
07-01-1998,22:00,0.5,R,mgm-3,17,R,ugm-3 (GRAV EQ),99,R,ugm-3,84,R,ugm-3,235,R,ugm-3,14,R,ugm-3,40,R,ugm-3
07-01-1998,23:00,0.3,R,mgm-3,16,R,ugm-3 (GRAV EQ),65,R,ugm-3,69,R,ugm-3,168,R,ugm-3,20,R,ugm-3,56,R,ugm-3
07-01-1998,24:00,0.2,R,mgm-3,10,R,ugm-3 (GRAV EQ),38,R,ugm-3,52,R,ugm-3,109,R,ugm-3,34,R,ugm-3,53,R,ugm-3
08-01-1998,01:00,0.1,R,mgm-3,8,R,ugm-3 (GRAV EQ),33,R,ugm-3,44,R,ugm-3,94,R,ugm-3,44,R,ugm-3,16,R,ugm-3
08-01-1998,02:00,0.0,R,mgm-3,13,R,ugm-3 (GRAV EQ),25,R,ugm-3,42,R,ugm-3,80,R,ugm-3,48,R,ugm-3,11,R,ugm-3
08-01-1998,03:00,0.0,R,mgm-3,17,R,ugm-3 (GRAV EQ),48,R,ugm-3,63,R,ugm-3,136,R,ugm-3,28,R,ugm-3,16,R,ugm-3
08-01-1998,04:00,0.1,R,mgm-3,16,R,ugm-3 (GRAV EQ),63,R,ugm-3,71,R,ugm-3,166,R,ugm-3,18,R,ugm-3,21,R,ugm-3
08-01-1998,05:00,0.1,R,mgm-3,22,R,ugm-3 (GRAV EQ),93,R,ugm-3,73,R,ugm-3,214,R,ugm-3,14,R,ugm-3,21,R,ugm-3
08-01-1998,06:00,,,,,,,,,,,,,,,,,,,,,
08-01-1998,07:00,0.9,R,mgm-3,39,R,ugm-3 (GRAV EQ),471,R,ugm-3,115,R,ugm-3,835,R,ugm-3,4,R,ugm-3,56,R,ugm-3
08-01-1998,08:00,2.1,R,mgm-3,70,R,ugm-3 (GRAV EQ),526,R,ugm-3,132,R,ugm-3,936,R,ugm-3,4,R,ugm-3,61,R,ugm-3
08-01-1998,09:00,1.9,R,mgm-3,35,R,ugm-3 (GRAV EQ),351,R,ugm-3,115,R,ugm-3,651,R,ugm-3,4,R,ugm-3,51,R,ugm-3
08-01-1998,10:00,0.8,R,mgm-3,29,R,ugm-3 (GRAV EQ),276,R,ugm-3,97,R,ugm-3,520,R,ugm-3,6,R,ugm-3,43,R,ugm-3
08-01-1998,11:00,0.2,R,mgm-3,31,R,ugm-3 (GRAV EQ),188,R,ugm-3,88,R,ugm-3,374,R,ugm-3,8,R,ugm-3,40,R,ugm-3
08-01-1998,12:00,0.3,R,mgm-3,49,R,ugm-3 (GRAV EQ),255,R,ugm-3,97,R,ugm-3,487,R,ugm-3,4,R,ugm-3,53,R,ugm-3
08-01-1998,13:00,0.3,R,mgm-3,46,R,ugm-3 (GRAV EQ),185,R,ugm-3,92,R,ugm-3,374,R,ugm-3,8,R,ugm-3,170,R,ugm-3
08-01-1998,14:00,0.2,R,mgm-3,43,R,ugm-3 (GRAV EQ),164,R,ugm-3,84,R,ugm-3,334,R,ugm-3,12,R,ugm-3,72,R,ugm-3
08-01-1998,15:00,,,,55,R,ugm-3 (GRAV EQ),,,,,,,,,,,,,,,
08-01-1998,16:00,,,,,,,,,,,,,,,,,,,,,
08-01-1998,17:00,2.4,R,mgm-3,78,R,ugm-3 (GRAV EQ),436,R,ugm-3,149,R,ugm-3,816,R,ugm-3,4,R,ugm-3,53,R,ugm-3
08-01-1998,18:00,2.6,R,mgm-3,53,R,ugm-3 (GRAV EQ),398,R,ugm-3,122,R,ugm-3,730,R,ugm-3,2,R,ugm-3,80,R,ugm-3
08-01-1998,19:00,1.3,R,mgm-3,34,R,ugm-3 (GRAV EQ),211,R,ugm-3,97,R,ugm-3,420,R,ugm-3,2,R,ugm-3,59,R,ugm-3
08-01-1998,20:00,0.8,R,mgm-3,33,R,ugm-3 (GRAV EQ),128,R,ugm-3,78,R,ugm-3,273,R,ugm-3,8,R,ugm-3,53,R,ugm-3
08-01-1998,21:00,0.3,R,mgm-3,29,R,ugm-3 (GRAV EQ),90,R,ugm-3,74,R,ugm-3,212,R,ugm-3,12,R,ugm-3,40,R,ugm-3
08-01-1998,22:00,0.2,R,mgm-3,23,R,ugm-3 (GRAV EQ),58,R,ugm-3,59,R,ugm-3,147,R,ugm-3,22,R,ugm-3,32,R,ugm-3
08-01-1998,23:00,0.1,R,mgm-3,29,R,ugm-3 (GRAV EQ),49,R,ugm-3,55,R,ugm-3,130,R,ugm-3,26,R,ugm-3,35,R,ugm-3
08-01-1998,24:00,0.1,R,mgm-3,23,R,ugm-3 (GRAV EQ),43,R,ugm-3,50,R,ugm-3,115,R,ugm-3,28,R,ugm-3,24,R,ugm-3
09-01-1998,01:00,0.1,R,mgm-3,16,R,ugm-3 (GRAV EQ),34,R,ugm-3,44,R,ugm-3,96,R,ugm-3,30,R,ugm-3,37,R,ugm-3
09-01-1998,02:00,0.0,R,mgm-3,25,R,ugm-3 (GRAV EQ),24,R,ugm-3,34,R,ugm-3,71,R,ugm-3,40,R,ugm-3,24,R,ugm-3
09-01-1998,03:00,0.0,R,mgm-3,27,R,ugm-3 (GRAV EQ),24,R,ugm-3,31,R,ugm-3,67,R,ugm-3,42,R,ugm-3,27,R,ugm-3
09-01-1998,04:00,0.0,R,mgm-3,18,R,ugm-3 (GRAV EQ),28,R,ugm-3,34,R,ugm-3,76,R,ugm-3,36,R,ugm-3,24,R,ugm-3
09-01-1998,05:00,0.0,R,mgm-3,17,R,ugm-3 (GRAV EQ),49,R,ugm-3,48,R,ugm-3,122,R,ugm-3,30,R,ugm-3,24,R,ugm-3
09-01-1998,06:00,0.1,R,mgm-3,21,R,ugm-3 (GRAV EQ),81,R,ugm-3,57,R,ugm-3,181,R,ugm-3,22,R,ugm-3,35,R,ugm-3
09-01-1998,07:00,0.2,R,mgm-3,30,R,ugm-3 (GRAV EQ),149,R,ugm-3,73,R,ugm-3,300,R,ugm-3,14,R,ugm-3,56,R,ugm-3
09-01-1998,08:00,0.3,R,mgm-3,38,R,ugm-3 (GRAV EQ),180,R,ugm-3,78,R,ugm-3,353,R,ugm-3,10,R,ugm-3,53,R,ugm-3
09-01-1998,09:00,0.6,R,mgm-3,44,R,ugm-3 (GRAV EQ),229,R,ugm-3,84,R,ugm-3,434,R,ugm-3,8,R,ugm-3,59,R,ugm-3
09-01-1998,10:00,1.2,R,mgm-3,62,R,ugm-3 (GRAV EQ),469,R,ugm-3,105,R,ugm-3,821,R,ugm-3,4,R,ugm-3,90,R,ugm-3
09-01-1998,11:00,0.8,R,mgm-3,61,R,ugm-3 (GRAV EQ),434,R,ugm-3,101,R,ugm-3,764,R,ugm-3,2,R,ugm-3,98,R,ugm-3
09-01-1998,12:00,0.6,R,mgm-3,43,R,ugm-3 (GRAV EQ),290,R,ugm-3,92,R,ugm-3,535,R,ugm-3,4,R,ugm-3,80,R,ugm-3
09-01-1998,13:00,0.3,R,mgm-3,31,R,ugm-3 (GRAV EQ),180,R,ugm-3,76,R,ugm-3,351,R,ugm-3,10,R,ugm-3,64,R,ugm-3
09-01-1998,14:00,0.3,R,mgm-3,38,R,ugm-3 (GRAV EQ),189,R,ugm-3,78,R,ugm-3,367,R,ugm-3,8,R,ugm-3,67,R,ugm-3
09-01-1998,15:00,0.5,R,mgm-3,43,R,ugm-3 (GRAV EQ),230,R,ugm-3,82,R,ugm-3,434,R,ugm-3,6,R,ugm-3,69,R,ugm-3
09-01-1998,16:00,0.6,R,mgm-3,33,R,ugm-3 (GRAV EQ),216,R,ugm-3,78,R,ugm-3,409,R,ugm-3,6,R,ugm-3,59,R,ugm-3
09-01-1998,17:00,1.3,R,mgm-3,49,R,ugm-3 (GRAV EQ),314,R,ugm-3,92,R,ugm-3,571,R,ugm-3,4,R,ugm-3,85,R,ugm-3
09-01-1998,18:00,1.2,R,mgm-3,36,R,ugm-3 (GRAV EQ),223,R,ugm-3,80,R,ugm-3,420,R,ugm-3,4,R,ugm-3,69,R,ugm-3
09-01-1998,19:00,1.2,R,mgm-3,36,R,ugm-3 (GRAV EQ),233,R,ugm-3,84,R,ugm-3,439,R,ugm-3,4,R,ugm-3,77,R,ugm-3
09-01-1998,20:00,1.6,R,mgm-3,44,R,ugm-3 (GRAV EQ),260,R,ugm-3,78,R,ugm-3,476,R,ugm-3,2,R,ugm-3,80,R,ugm-3
09-01-1998,21:00,0.9,R,mgm-3,36,R,ugm-3 (GRAV EQ),151,R,ugm-3,69,R,ugm-3,300,R,ugm-3,4,R,ugm-3,74,R,ugm-3
09-01-1998,22:00,0.6,R,mgm-3,33,R,ugm-3 (GRAV EQ),109,R,ugm-3,65,R,ugm-3,231,R,ugm-3,4,R,ugm-3,67,R,ugm-3
09-01-1998,23:00,0.2,R,mgm-3,29,R,ugm-3 (GRAV EQ),64,R,ugm-3,55,R,ugm-3,153,R,ugm-3,8,R,ugm-3,72,R,ugm-3
09-01-1998,24:00,0.2,R,mgm-3,25,R,ugm-3 (GRAV EQ),48,R,ugm-3,50,R,ugm-3,122,R,ugm-3,8,R,ugm-3,80,R,ugm-3
10-01-1998,01:00,0.1,R,mgm-3,31,R,ugm-3 (GRAV EQ),41,R,ugm-3,53,R,ugm-3,117,R,ugm-3,8,R,ugm-3,104,R,ugm-3
10-01-1998,02:00,0.1,R,mgm-3,30,R,ugm-3 (GRAV EQ),63,R,ugm-3,55,R,ugm-3,151,R,ugm-3,8,R,ugm-3,51,R,ugm-3
10-01-1998,03:00,0.1,R,mgm-3,30,R,ugm-3 (GRAV EQ),48,R,ugm-3,50,R,ugm-3,122,R,ugm-3,12,R,ugm-3,43,R,ugm-3
10-01-1998,04:00,0.1,R,mgm-3,29,R,ugm-3 (GRAV EQ),41,R,ugm-3,42,R,ugm-3,105,R,ugm-3,16,R,ugm-3,35,R,ugm-3
10-01-1998,05:00,0.1,R,mgm-3,29,R,ugm-3 (GRAV EQ),46,R,ugm-3,44,R,ugm-3,115,R,ugm-3,16,R,ugm-3,32,R,ugm-3
10-01-1998,06:00,0.1,R,mgm-3,31,R,ugm-3 (GRAV EQ),85,R,ugm-3,48,R,ugm-3,178,R,ugm-3,14,R,ugm-3,35,R,ugm-3
10-01-1998,07:00,0.3,R,mgm-3,42,R,ugm-3 (GRAV EQ),185,R,ugm-3,65,R,ugm-3,348,R,ugm-3,6,R,ugm-3,43,R,ugm-3
10-01-1998,08:00,0.6,R,mgm-3,43,R,ugm-3 (GRAV EQ),201,R,ugm-3,69,R,ugm-3,376,R,ugm-3,4,R,ugm-3,45,R,ugm-3
10-01-1998,09:00,0.7,R,mgm-3,46,R,ugm-3 (GRAV EQ),240,R,ugm-3,71,R,ugm-3,437,R,ugm-3,2,R,ugm-3,51,R,ugm-3
10-01-1998,10:00,1.0,R,mgm-3,49,R,ugm-3 (GRAV EQ),300,R,ugm-3,74,R,ugm-3,533,R,ugm-3,4,R,ugm-3,64,R,ugm-3
10-01-1998,11:00,0.9,R,mgm-3,44,R,ugm-3 (GRAV EQ),223,R,ugm-3,74,R,ugm-3,414,R,ugm-3,4,R,ugm-3,32,R,ugm-3